INMARSAT 5-F2

Last updated on Wed Oct 29 2025 00:02:48 GMT+0000 (Coordinated Universal Time)

1 40384U 15005A 25301.38980885 -.00000275 00000+0 00000+0 0 9993 2 40384 0.0126 252.4661 0000143 200.6848 29.1996 1.00269526 38673
UTC large
Height (km)
Speed (km/s)
/
Latitude / Longitude
Inclination (degrees)
Orbital Period (minutes)
Azimuth
Elevation
Range (km)
Doppler Factor

Next 0 passes for location: London (51.5072 / 0.1276)

Sorry there are no passes over London.